Theta_e
297 296 294 293 291 289 288 288 288 288 288 288 288 288 288 286 286 286 285 284 284 283
296 295 292 291 290 288 288 288 288 287 287 287 287 287 286 285 284 285 285 284 283 282
292 291 290 288 286 286 287 287 286 286 286 286 285 285 285 284 284 283 283 283 282 281
289 288 288 287 286 286 286 285 285 285 285 284 284 284 284 283 282 281 281 282 281 280
287 287 286 285 285 285 285 285 285 284 284 283 283 283 282 281 282 281 280 280 280 279
285 285 284 284 284 284 284 284 284 283 282 282 282 282 282 282 281 280 280 279 279 278
285 284 284 283 283 283 283 282 282 282 282 281 281 281 281 281 280 280 279 279 279 279
284 283 283 283 282 282 282 281 281 281 281 281 281 280 280 280 280 279 279 279 278 278
283 282 282 281 281 281 282 282 282 282 282 282 280 281 280 280 279 278 277 277 278 278
281 281 281 281 281 281 281 281 281 281 281 281 282 282 281 280 279 278 278 278 277 277
281 280 280 280 280 280 280 280 280 280 280 280 280 282 281 280 280 279 279 278 278 277
280 279 279 279 279 279 279 279 278 278 278 278 278 279 279 279 279 278 278 278 277 277
280 280 279 279 278 279 279 278 278 277 278 278 277 278 278 279 279 277 277 277 277 277
280 280 279 278 278 278 277 277 277 276 277 277 277 277 278 278 277 276 276 276 276 276
Wind_Speed
14 9 10 12 10 8 7 8 7 9 7 9 7 7 8 6 7 8 7 10 7 6
12 14 12 15 11 8 10 8 9 8 8 8 8 8 7 6 7 7 7 7 7 5
14 15 15 13 13 11 9 10 10 8 7 8 8 7 8 7 6 7 5 5 6 5
16 15 15 14 11 10 10 9 10 9 7 8 7 7 7 7 7 7 6 5 6 6
14 16 15 12 11 11 10 10 9 9 8 8 7 6 7 7 5 6 6 6 5 4
14 14 14 13 11 10 10 9 9 8 7 7 7 7 6 6 5 6 5 4 4 4
14 13 13 11 11 10 9 9 8 7 7 7 7 6 6 5 5 4 4 4 3 4
14 13 12 11 11 10 9 9 8 8 7 6 6 4 5 4 4 4 3 3 3 3
14 12 10 11 10 10 9 8 7 7 7 6 5 9 7 4 4 3 2 2 2 2
12 12 11 10 10 9 9 7 7 6 6 6 6 7 7 4 3 1 2 2 3 3
12 11 10 10 9 8 7 6 6 6 5 5 4 4 3 2 2 2 2 3 3 4
12 11 9 9 8 7 6 6 5 5 5 4 4 3 2 2 2 2 3 3 4 5
11 10 10 9 8 4 5 6 5 6 5 5 4 6 4 3 2 3 3 4 4 2
9 9 9 8 6 6 6 6 5 6 5 5 4 4 3 3 4 4 4 5 4 3
Wind_Direction
127 127 122 120 120 111 108 109 99 91 103 96 88 86 75 72 77 73 71 72 66 68
120 120 115 109 101 106 111 110 113 104 100 97 90 84 86 82 80 71 68 69 65 65
105 103 107 104 103 107 114 112 113 100 92 96 95 95 91 84 79 82 71 74 78 71
107 105 102 102 106 114 112 118 105 104 109 103 100 93 93 91 86 87 88 78 73 66
99 111 107 99 110 110 117 102 108 116 114 105 102 98 97 96 97 97 83 72 72 62
106 101 101 107 108 104 102 108 113 112 111 101 101 105 98 98 92 83 81 75 67 53
108 109 101 115 112 110 119 113 106 103 101 103 105 104 98 99 99 94 84 65 50 38
109 109 117 117 111 117 106 103 115 115 111 110 106 97 101 103 101 91 89 68 34 21
105 109 110 107 111 108 112 120 116 113 115 105 101 111 99 88 92 90 64 21 359 300
116 113 114 118 116 117 118 123 119 111 115 108 117 122 113 91 80 48 37 357 316 321
116 113 114 114 113 108 115 120 119 114 107 104 92 131 139 139 338 328 353 323 312 309
116 115 113 108 110 113 115 113 109 102 103 120 116 86 45 349 307 289 298 313 310 321
115 118 114 114 111 107 109 105 101 95 89 54 94 49 25 333 300 305 316 308 296 270
106 110 109 105 107 115 106 107 105 102 87 75 41 71 29 5 321 325 319 322 330 335